Vorticity
5 5 4 3 3 3 4 5 6 6 5 5 5 5 3 2 1 1 3 5 6 7 7 8 9 8 8 8 9 10 10 10 9 9 8 7 6 4 4 3 1 1 2 4 7 8 8 8 7 8 9 7 5 6 8 11 13 10 13 13 8 3 2 4 2 1 2 2 2 2 2 2 3 3 4 3 5 6 5 4 4 3 4 4 4
6 5 3 3 3 4 5 6 6 5 5 4 4 4 3 3 3 5 5 6 6 7 7 8 8 7 7 9 10 10 9 8 7 7 8 8 6 4 4 3 3 2 1 4 6 8 9 8 7 8 10 7 4 6 7 12 14 10 11 12 8 4 2 4 3 1 1 2 1 1 2 2 3 3 4 4 5 6 5 5 4 3 4 4 4
5 3 2 2 4 5 5 5 5 5 5 5 6 6 6 6 6 6 6 6 6 6 7 8 8 8 8 10 11 12 10 7 5 5 7 8 6 4 5 4 3 2 1 3 5 7 8 8 8 8 10 7 4 6 8 12 14 10 9 11 8 4 2 4 4 1 -0 1 0 1 1 2 3 4 5 5 6 6 5 5 4 3 3 4 5
5 3 3 3 4 5 4 4 5 5 6 6 7 7 7 7 5 5 5 6 6 6 7 8 9 8 8 10 12 13 10 6 4 3 6 8 7 4 4 4 3 2 1 3 4 6 7 7 9 9 9 7 5 6 8 12 14 10 9 10 8 4 3 3 4 3 1 1 0 -0 0 1 2 4 5 5 6 6 5 5 3 3 3 4 4
4 3 3 3 3 3 4 4 4 5 6 6 7 7 6 5 4 5 6 6 6 6 7 9 9 8 9 11 12 12 9 3 1 3 7 9 8 5 3 3 3 3 1 2 3 4 7 7 9 10 9 8 5 6 7 12 15 10 9 9 6 5 3 3 4 4 3 2 2 1 -0 1 2 4 6 6 6 5 6 5 3 3 3 4 4
1 2 3 2 2 2 3 3 4 5 6 6 6 5 4 4 4 5 6 7 6 6 7 9 9 8 10 11 10 11 8 -0 1 9 15 15 11 6 3 3 3 3 2 1 4 5 6 8 9 9 9 8 5 4 6 11 16 11 9 10 5 4 4 3 4 3 2 1 2 3 1 1 2 4 6 7 6 5 5 5 3 2 3 4 4
1 1 2 2 2 2 3 3 4 5 6 6 5 4 4 4 5 6 7 7 7 8 9 9 9 9 9 9 9 9 8 1 -1 6 13 16 18 12 3 3 4 3 3 1 3 5 6 7 9 9 9 8 5 4 6 10 16 12 9 10 5 4 5 4 3 3 3 1 1 3 4 2 2 4 6 6 5 5 5 4 4 2 3 4 4
3 2 2 2 2 2 2 3 3 4 5 5 5 4 4 5 6 7 7 7 8 9 9 9 9 10 11 11 10 8 9 4 -2 -1 1 4 15 21 10 2 4 3 3 3 3 5 6 7 9 9 9 7 5 4 5 9 16 14 9 9 5 2 5 5 4 4 4 3 2 2 3 3 3 4 6 6 5 5 4 4 3 3 3 3 4
3 4 5 3 2 2 2 1 2 4 5 5 5 4 5 6 6 7 8 7 8 8 9 10 10 11 12 12 12 11 11 8 2 -1 -1 -3 2 18 22 8 4 5 3 5 4 4 5 7 9 9 9 7 5 4 5 8 14 16 11 8 6 2 3 5 4 4 5 5 3 2 2 3 2 3 6 6 5 4 4 4 3 3 3 3 3
2 6 7 5 3 2 2 2 2 3 5 5 5 4 5 5 7 8 7 8 9 10 12 11 9 10 9 8 11 12 12 13 11 6 3 1 -2 6 22 17 4 4 3 6 6 4 5 6 9 10 10 7 5 4 4 7 12 17 13 8 6 3 2 3 4 4 5 6 5 4 4 3 3 3 5 6 5 4 4 4 3 3 3 3 3
3 7 8 5 4 3 3 4 4 3 4 5 5 5 5 6 8 8 7 8 9 11 11 8 7 7 6 5 5 7 10 13 16 14 8 4 3 1 15 21 7 1 2 5 6 4 6 6 9 11 10 8 5 3 3 6 10 16 15 10 7 4 2 2 3 4 5 6 5 5 4 4 4 3 4 5 5 4 4 4 3 4 3 3 3
7 8 8 6 4 3 3 4 3 4 5 5 4 4 6 7 7 6 7 9 10 10 8 6 6 5 4 5 3 4 6 10 15 18 14 7 6 5 11 20 11 2 -0 3 6 4 5 6 8 12 11 9 5 3 3 5 8 14 17 12 9 5 2 2 2 4 5 6 5 5 5 5 4 2 3 4 3 4 4 4 4 4 3 3 3
11 9 8 6 5 4 3 2 2 5 5 4 3 4 8 8 6 7 7 9 12 10 8 7 5 4 3 3 3 5 5 7 12 16 17 11 7 6 8 17 14 5 1 1 6 5 5 6 8 11 12 9 5 3 2 4 7 12 17 14 9 6 2 2 2 4 5 6 5 5 4 5 6 3 3 3 2 4 4 4 4 4 3 4 3
10 10 9 8 7 6 5 5 5 6 5 3 3 6 9 7 8 9 9 11 11 9 8 6 3 3 2 3 4 7 8 6 10 13 16 14 9 7 5 16 16 8 8 6 5 5 5 6 8 12 13 9 4 3 3 3 7 10 16 16 11 7 4 2 2 3 4 5 5 5 4 4 6 5 3 3 3 3 3 3 4 3 3 3 3
9 10 11 10 9 7 7 7 5 6 5 3 4 8 8 7 9 10 11 11 8 8 7 4 2 3 2 4 5 7 8 6 10 11 13 13 10 9 7 17 15 7 12 9 5 5 5 6 7 12 13 10 5 3 3 2 6 9 14 17 14 9 5 3 1 2 3 5 5 4 5 3 5 5 4 4 3 3 2 3 3 3 3 3 3
10 10 10 10 10 9 8 7 6 6 4 4 8 10 8 8 10 10 12 9 7 7 6 3 2 4 3 4 7 7 7 9 12 10 10 10 9 10 7 15 12 3 10 7 5 5 3 7 8 12 14 9 5 2 2 2 5 8 12 16 16 12 7 5 1 1 3 5 5 4 5 4 3 4 4 4 3 3 3 3 3 3 3 3 3
10 10 10 10 10 9 8 7 7 5 4 8 11 9 7 9 10 11 11 8 6 5 5 5 3 4 3 6 9 5 7 13 14 9 7 10 11 11 10 19 12 0 9 9 6 6 3 6 9 14 15 9 4 2 2 2 4 7 10 13 16 15 10 7 3 1 3 5 6 5 5 4 3 3 4 3 3 3 3 3 3 3 2 2 2
10 9 8 9 8 8 8 7 6 4 7 11 10 8 8 9 10 10 9 7 5 5 6 6 5 4 3 8 9 3 11 16 12 7 6 11 13 13 16 21 14 1 6 10 7 5 4 6 11 15 15 10 3 2 2 2 3 6 9 11 15 16 12 9 6 3 2 4 5 5 5 4 3 3 3 2 2 2 2 2 2 3 2 2 2
9 8 7 7 6 6 6 6 4 5 9 10 9 9 9 9 9 9 8 5 5 7 5 6 6 5 5 7 3 3 13 14 8 7 7 11 11 13 18 16 13 7 1 6 9 6 4 7 11 16 16 9 3 1 1 1 3 4 7 10 13 16 14 11 8 6 3 3 4 4 4 4 3 3 3 2 2 1 1 2 2 3 2 2 2
7 8 8 7 6 6 5 5 6 9 11 10 10 9 8 8 7 8 6 5 8 8 3 7 7 4 8 6 4 8 13 12 9 9 8 9 8 8 14 14 16 14 2 0 7 6 5 8 12 15 16 10 3 2 1 1 3 3 5 8 11 14 15 12 10 8 4 3 3 3 3 3 3 3 3 3 2 1 1 1 1 2 2 2 3
8 8 8 8 7 7 7 9 11 13 12 11 10 8 7 7 7 7 6 8 8 5 5 8 4 4 10 9 10 11 11 13 10 8 6 6 8 5 4 10 16 18 10 -1 -0 5 4 7 12 14 15 11 4 2 3 1 2 3 3 6 9 12 14 13 10 9 7 4 2 2 2 3 3 2 3 4 4 2 1 0 0 1 1 2 3
8 7 7 7 7 8 11 14 14 13 12 11 9 8 8 7 8 7 7 10 6 5 9 7 3 5 9 10 11 10 10 11 5 3 5 5 7 5 3 6 11 16 17 6 -3 2 4 4 10 15 15 11 4 2 3 3 3 3 2 5 7 9 12 13 11 10 8 6 3 2 1 2 3 2 2 4 5 4 3 1 -0 -0 0 0 1
4 5 5 6 7 10 13 13 14 14 12 10 8 7 8 7 8 7 7 10 7 8 8 5 7 8 7 8 9 10 11 8 5 5 6 6 4 3 5 6 7 10 15 15 4 -1 2 3 5 14 16 12 5 1 3 3 2 3 2 4 6 8 11 12 12 10 9 8 5 3 1 1 2 3 2 3 4 6 6 4 2 -0 -0 -0 0
3 4 5 6 9 10 11 12 13 14 11 9 8 7 7 8 10 8 8 9 8 8 5 4 8 10 9 9 8 9 10 8 8 9 8 10 10 8 7 7 9 8 7 15 15 4 0 3 3 10 15 14 7 1 2 3 2 3 3 4 5 8 9 9 10 9 9 8 7 6 3 2 2 3 3 3 3 5 8 8 5 2 0 0 1
5 5 7 8 10 9 9 14 16 14 10 8 7 7 8 9 10 8 7 7 7 7 5 5 7 9 11 9 8 8 8 8 8 10 10 10 10 10 9 9 11 10 6 7 16 15 4 1 2 5 12 15 10 3 2 3 2 3 3 4 5 7 8 8 9 9 9 9 9 9 6 5 4 4 4 4 4 3 5 8 9 7 3 1 1
8 6 10 10 10 9 9 13 16 13 9 7 7 7 7 7 7 6 5 5 5 6 5 6 6 7 9 8 7 7 8 9 8 7 7 6 7 7 8 10 11 10 9 4 9 20 11 1 2 3 8 13 12 5 1 3 3 3 3 3 5 6 8 8 8 8 8 9 9 10 9 8 7 6 6 5 5 4 4 6 9 10 7 3 1
9 5 9 11 10 10 10 11 12 10 8 7 6 6 6 6 6 5 5 5 4 6 5 5 6 4 5 6 6 7 8 9 8 8 8 7 7 8 8 9 11 9 10 8 6 15 14 7 6 4 6 11 13 7 1 3 3 2 3 3 4 5 7 9 8 7 7 7 8 9 9 9 9 8 8 8 7 6 5 5 7 10 10 7 4
9 7 9 11 11 12 11 12 11 10 8 6 6 6 5 5 5 4 4 5 4 5 5 4 6 5 3 3 4 5 4 5 7 9 13 13 9 8 9 8 10 8 9 11 8 11 12 14 15 6 4 8 11 11 3 1 3 3 2 2 4 4 6 8 9 8 7 7 6 7 8 8 9 8 8 9 9 8 6 6 5 6 8 9 8
8 7 9 11 12 11 11 11 11 9 7 6 6 5 5 5 4 4 4 4 3 4 5 4 4 5 4 2 3 3 3 3 2 4 9 14 15 11 8 6 8 8 9 11 12 11 10 16 18 7 4 5 6 13 9 1 2 3 3 2 2 3 4 6 8 8 7 7 6 6 7 7 7 7 7 6 7 8 7 5 4 3 5 7 9
10 9 9 11 11 10 10 10 10 9 6 4 4 3 4 4 4 4 4 4 3 4 5 4 3 3 4 3 3 4 4 1 -0 5 10 12 16 15 10 6 6 7 8 9 11 12 10 14 17 8 5 5 1 8 13 7 1 2 3 3 3 3 3 4 6 8 8 7 7 6 6 7 7 6 7 7 6 6 6 6 5 3 2 3 5
8 9 8 9 10 10 9 9 9 7 5 3 3 4 3 3 3 3 4 5 6 7 6 4 3 4 4 4 4 5 5 1 1 7 11 10 12 15 13 9 7 6 6 6 8 11 11 12 17 13 8 8 2 1 10 12 5 2 2 3 3 2 3 3 3 5 7 7 6 7 7 7 7 7 7 7 7 7 6 7 6 5 4 3 3
6 7 7 7 8 10 10 8 7 4 4 3 3 4 4 4 4 4 5 6 7 8 9 7 6 5 5 5 5 6 5 3 3 5 9 8 10 13 10 7 8 8 6 6 7 9 11 12 16 15 10 10 6 -0 3 9 10 6 2 2 2 2 2 2 3 3 4 5 5 5 7 7 7 8 8 7 8 8 7 7 8 7 6 5 4
6 7 7 7 8 9 9 8 6 3 2 2 3 3 3 4 4 6 7 8 9 9 10 10 9 8 7 7 8 8 5 3 4 6 7 1 2 9 7 6 8 9 8 8 7 7 7 9 14 16 12 11 10 4 -1 2 8 9 7 4 1 2 2 1 3 3 2 3 4 4 5 6 6 7 7 8 8 8 9 8 9 8 7 7 6
8 9 9 10 9 8 8 7 4 2 2 2 3 3 4 4 4 6 8 9 11 11 11 11 11 10 8 8 9 9 7 4 4 4 3 -3 -0 7 6 7 8 8 9 8 9 8 6 6 10 16 15 11 11 9 2 -1 3 7 9 8 4 2 1 2 1 2 3 2 3 4 4 4 5 7 7 7 8 8 9 9 10 11 9 8 8
8 9 10 12 11 8 7 5 3 2 2 2 4 5 4 5 5 7 8 10 11 12 12 11 10 10 9 8 7 8 8 5 6 5 3 4 9 10 8 9 8 8 9 10 13 11 8 7 8 16 19 15 13 12 8 2 1 3 7 8 9 6 2 2 1 1 3 3 3 3 3 4 4 5 6 5 6 7 8 9 10 11 11 9 8
9 9 10 11 11 10 8 5 4 2 3 4 4 5 5 6 7 8 9 9 10 11 11 10 9 8 8 7 6 6 7 5 7 6 6 9 9 8 12 12 7 9 9 9 15 13 10 10 8 12 18 18 15 11 9 9 5 1 4 6 7 9 6 2 2 2 2 2 3 4 3 3 3 4 5 5 5 6 7 8 9 10 10 9 8
11 10 9 9 9 8 7 5 4 3 4 4 5 5 6 6 7 7 8 8 9 9 9 8 7 6 6 6 6 6 7 7 8 6 7 11 9 6 11 12 7 8 6 4 11 11 10 11 9 10 16 19 19 15 10 11 11 3 1 3 4 8 9 5 2 2 3 3 2 3 4 2 3 4 4 4 4 5 6 7 8 10 9 8 6
10 12 11 9 7 6 6 4 3 4 4 4 5 6 6 6 6 7 7 7 7 7 7 7 6 6 6 6 6 7 8 9 10 8 8 9 9 6 8 10 8 8 6 3 5 5 6 7 5 6 12 16 18 20 17 13 14 13 6 0 1 4 8 7 6 3 1 3 3 2 3 3 3 3 3 4 3 3 5 5 6 8 9 8 7
9 10 11 9 8 7 6 6 6 6 6 5 6 7 7 7 6 5 6 6 7 7 7 7 7 7 8 7 7 7 8 9 11 11 10 9 9 7 7 9 10 9 6 2 4 8 7 7 7 8 12 16 14 13 18 17 12 16 15 5 -1 1 6 6 6 7 4 2 3 3 3 3 3 3 3 3 3 3 3 4 5 6 7 8 8
9 8 9 9 9 8 8 8 8 7 7 7 7 7 8 7 6 5 5 6 6 7 7 7 8 8 8 8 8 8 8 9 10 10 10 9 9 9 8 8 8 8 5 3 7 8 4 6 9 6 5 14 20 16 16 19 14 15 17 13 4 -3 2 5 2 4 8 5 4 3 3 3 3 3 3 3 3 3 3 3 3 4 4 5 6
8 6 7 7 7 8 9 8 7 7 7 8 7 7 7 7 6 6 5 6 6 6 6 6 7 7 7 8 8 8 8 9 10 10 10 9 9 10 10 10 7 4 4 5 7 5 3 5 1 2 7 9 16 18 17 19 20 17 14 17 20 11 2 2 -1 -1 4 7 8 6 3 2 3 2 2 3 3 2 3 3 3 3 3 3 3
7 6 6 6 6 6 7 8 7 7 7 8 7 7 7 7 6 7 6 6 6 6 6 5 6 7 7 8 8 9 9 10 10 10 10 9 8 8 9 11 11 5 2 4 5 4 5 7 0 4 23 23 11 14 21 25 25 19 8 8 22 30 18 3 -3 -4 0 5 7 8 7 3 2 2 2 2 3 3 3 2 3 3 3 3 3
7 6 6 6 6 6 6 7 7 7 7 7 8 7 8 8 7 7 6 6 7 7 7 6 6 7 8 8 8 9 10 10 11 10 11 10 9 8 8 10 12 9 5 3 4 4 3 8 8 3 12 20 11 8 15 19 22 22 13 7 11 21 24 16 5 -3 -1 7 9 8 9 7 4 2 2 2 1 3 3 3 3 3 3 3 3
7 6 7 7 7 7 8 8 8 8 8 8 9 9 8 8 8 8 7 7 7 7 7 7 7 8 9 9 9 9 10 11 11 11 11 11 9 9 8 8 11 11 9 5 3 4 -1 0 9 6 4 13 11 9 10 4 9 18 12 12 18 18 21 26 25 16 7 7 9 9 8 8 8 5 3 3 2 1 2 3 3 3 3 3 3
8 7 7 7 7 9 10 10 10 11 10 10 10 9 8 8 9 8 8 7 7 7 7 8 8 9 10 11 11 10 11 12 12 12 11 11 10 9 9 8 9 10 12 11 7 5 2 -2 0 1 0 7 8 11 16 5 3 14 6 -3 6 15 22 28 27 27 28 21 9 8 10 7 7 9 6 5 4 2 2 2 3 4 3 3 3
7 6 6 7 8 10 11 10 11 11 10 11 11 10 9 9 8 9 9 8 8 8 9 9 10 11 11 11 12 12 12 12 13 13 12 10 10 9 10 9 9 9 11 13 13 9 7 5 3 0 -4 -1 3 5 13 13 6 10 9 -1 -7 -4 15 32 26 14 19 30 20 8 10 9 5 6 6 7 7 6 5 4 3 3 3 3 3
8 8 9 10 10 11 11 12 11 10 10 10 10 9 9 9 8 9 10 9 8 9 10 10 10 10 11 12 12 12 12 12 13 14 13 11 10 9 9 10 10 10 10 11 14 15 15 12 8 8 4 -0 1 0 4 12 12 8 9 13 8 -7 -3 22 35 24 13 24 28 16 11 11 7 4 3 5 7 7 9 10 9 7 5 4 4
12 13 13 12 12 10 10 11 10 10 11 10 9 9 8 9 10 10 10 9 9 10 10 11 12 10 8 9 11 13 12 12 12 13 13 11 10 10 9 9 9 10 11 11 11 13 16 18 14 13 13 10 8 6 4 5 8 9 7 10 13 4 -4 1 16 25 18 17 21 18 16 14 9 7 4 3 3 4 5 7 10 11 11 10 8
12 12 11 10 9 9 8 9 10 10 10 9 9 9 9 9 10 10 10 11 10 10 11 12 13 11 8 7 7 10 11 12 13 13 14 12 10 10 9 9 9 9 11 11 12 11 11 14 15 13 14 14 13 12 10 6 4 5 5 5 7 5 4 1 0 6 9 9 10 12 14 13 10 9 7 4 3 3 4 5 6 8 10 11 12
9 9 8 7 6 8 8 8 9 10 9 9 9 9 9 10 11 11 12 12 12 11 11 12 12 9 8 7 7 9 10 11 12 13 14 14 12 11 10 9 9 10 10 10 10 11 10 9 10 10 11 11 12 12 12 10 8 6 5 6 7 6 5 6 6 4 3 5 7 9 10 10 10 9 9 8 6 5 5 5 5 6 6 7 9
6 5 5 6 5 6 8 8 9 10 10 10 9 9 10 10 10 11 11 12 13 13 13 12 12 10 7 7 8 9 9 9 11 12 13 14 13 12 11 10 9 9 10 11 10 10 10 9 8 8 9 8 9 10 11 11 10 9 8 7 8 10 9 8 9 10 8 7 6 5 5 6 7 6 6 7 7 6 6 6 6 5 4 4 4
Height
5853 5853 5852 5852 5851 5851 5850 5850 5849 5849 5849 5849 5849 5849 5849 5849 5848 5848 5848 5848 5848 5847 5847 5846 5846 5846 5846 5846 5846 5846 5846 5846 5847 5847 5847 5848 5848 5848 5849 5850 5850 5851 5851 5851 5852 5852 5852 5852 5852 5853 5854 5854 5855 5856 5857 5857 5858 5858 5859 5860 5861 5861 5862 5863 5863 5864 5864 5865 5866 5867 5867 5868 5869 5869 5870 5870 5870 5871 5871 5871 5871 5872 5871 5871 5871
5851 5851 5851 5851 5850 5850 5849 5849 5848 5847 5847 5847 5847 5847 5847 5847 5847 5847 5847 5846 5846 5846 5846 5845 5845 5845 5845 5845 5845 5845 5845 5845 5845 5846 5847 5847 5847 5848 5848 5849 5849 5850 5850 5850 5851 5851 5851 5851 5852 5852 5853 5854 5855 5856 5856 5857 5857 5857 5859 5860 5861 5861 5862 5863 5864 5864 5864 5865 5866 5867 5868 5868 5869 5870 5870 5871 5871 5871 5871 5872 5872 5872 5872 5871 5871
5850 5850 5849 5849 5849 5848 5847 5847 5846 5846 5845 5846 5846 5845 5845 5845 5845 5845 5845 5845 5845 5845 5844 5844 5844 5843 5843 5843 5843 5843 5844 5844 5844 5845 5845 5846 5847 5847 5847 5848 5848 5849 5849 5849 5849 5850 5850 5851 5851 5852 5852 5853 5854 5855 5856 5856 5857 5857 5858 5859 5861 5861 5862 5863 5864 5864 5864 5865 5866 5867 5868 5869 5869 5870 5871 5871 5872 5872 5872 5872 5872 5872 5872 5872 5871
5848 5848 5847 5847 5847 5847 5846 5845 5844 5844 5844 5844 5844 5844 5844 5844 5844 5843 5843 5843 5843 5843 5843 5843 5842 5842 5842 5842 5842 5842 5842 5843 5843 5844 5844 5845 5845 5846 5847 5847 5848 5848 5848 5848 5849 5849 5849 5850 5850 5851 5852 5853 5854 5855 5855 5856 5856 5857 5857 5859 5860 5861 5862 5863 5863 5864 5865 5865 5866 5867 5868 5869 5870 5870 5871 5871 5872 5873 5873 5872 5872 5872 5872 5872 5872
5846 5845 5845 5845 5845 5845 5844 5843 5843 5842 5842 5842 5842 5842 5842 5842 5842 5842 5842 5842 5842 5842 5841 5841 5841 5841 5840 5840 5840 5841 5841 5841 5842 5842 5843 5843 5844 5845 5845 5846 5847 5847 5847 5847 5848 5848 5848 5849 5849 5850 5851 5852 5853 5854 5855 5855 5856 5856 5857 5859 5860 5861 5862 5863 5863 5864 5865 5865 5866 5867 5868 5869 5870 5871 5871 5872 5872 5873 5873 5873 5873 5872 5872 5872 5872
5844 5843 5843 5843 5843 5843 5843 5842 5841 5841 5841 5841 5841 5840 5840 5840 5840 5840 5840 5840 5840 5840 5840 5839 5839 5839 5839 5839 5839 5839 5840 5840 5840 5841 5841 5842 5842 5843 5844 5845 5846 5846 5846 5847 5847 5847 5847 5848 5848 5849 5850 5851 5853 5854 5854 5855 5855 5856 5857 5858 5860 5861 5862 5863 5863 5864 5864 5865 5866 5867 5868 5869 5870 5871 5872 5872 5872 5873 5873 5873 5873 5873 5873 5872 5872
5841 5841 5841 5841 5841 5841 5841 5841 5840 5840 5839 5839 5839 5839 5839 5839 5838 5838 5838 5839 5839 5839 5838 5838 5837 5837 5837 5837 5837 5837 5838 5838 5839 5839 5839 5840 5841 5842 5842 5843 5845 5845 5846 5846 5846 5847 5847 5847 5847 5848 5849 5850 5852 5853 5854 5855 5855 5856 5857 5858 5860 5861 5862 5862 5863 5863 5864 5865 5866 5867 5868 5868 5869 5870 5871 5872 5873 5873 5873 5873 5873 5873 5873 5873 5873
5839 5839 5839 5840 5840 5840 5840 5839 5839 5838 5838 5838 5837 5837 5837 5837 5837 5837 5837 5837 5837 5837 5837 5836 5836 5836 5836 5835 5835 5835 5836 5837 5837 5837 5838 5838 5839 5840 5841 5842 5843 5844 5845 5845 5846 5846 5846 5846 5847 5847 5848 5850 5851 5852 5853 5854 5855 5855 5856 5857 5859 5861 5862 5862 5862 5863 5864 5865 5865 5866 5867 5868 5869 5870 5871 5872 5873 5873 5873 5873 5873 5873 5873 5873 5873
5837 5837 5837 5838 5838 5838 5838 5837 5837 5837 5836 5836 5836 5835 5835 5835 5835 5836 5836 5836 5836 5836 5836 5835 5835 5835 5835 5834 5834 5834 5834 5835 5835 5836 5836 5836 5837 5838 5839 5840 5841 5842 5843 5844 5845 5845 5846 5846 5846 5846 5847 5849 5850 5851 5852 5853 5854 5855 5856 5857 5858 5860 5861 5861 5862 5862 5863 5864 5865 5866 5867 5868 5869 5870 5871 5872 5873 5873 5873 5873 5874 5874 5874 5874 5873
5835 5835 5835 5835 5836 5836 5836 5836 5835 5835 5835 5834 5834 5834 5834 5834 5834 5834 5834 5834 5834 5835 5835 5834 5834 5834 5834 5833 5833 5833 5832 5832 5833 5833 5834 5834 5835 5835 5836 5838 5839 5840 5841 5842 5843 5844 5845 5845 5845 5845 5846 5848 5849 5850 5852 5853 5853 5854 5855 5856 5858 5859 5860 5861 5861 5862 5863 5864 5864 5866 5867 5868 5869 5869 5871 5871 5872 5873 5873 5873 5874 5874 5874 5874 5874
5833 5833 5833 5833 5834 5834 5834 5834 5834 5834 5833 5833 5832 5832 5832 5833 5833 5833 5832 5832 5833 5833 5833 5833 5833 5833 5832 5832 5831 5831 5831 5831 5831 5831 5831 5832 5833 5833 5834 5835 5837 5838 5839 5840 5841 5842 5843 5844 5844 5844 5845 5847 5848 5849 5851 5852 5853 5854 5855 5856 5857 5859 5859 5860 5861 5862 5863 5863 5864 5865 5866 5867 5868 5869 5870 5871 5872 5873 5873 5873 5873 5874 5874 5874 5874
5831 5831 5831 5831 5831 5832 5832 5832 5832 5832 5831 5831 5831 5831 5831 5832 5831 5831 5831 5831 5831 5831 5832 5832 5832 5831 5831 5830 5830 5830 5830 5829 5828 5828 5829 5830 5830 5831 5832 5833 5835 5837 5838 5839 5840 5841 5842 5843 5843 5843 5844 5846 5847 5848 5850 5851 5852 5853 5854 5855 5857 5858 5859 5860 5861 5862 5862 5863 5864 5865 5866 5867 5868 5869 5869 5870 5871 5872 5872 5873 5873 5874 5874 5874 5874
5829 5829 5829 5829 5829 5830 5830 5830 5830 5830 5830 5829 5829 5829 5830 5830 5830 5830 5830 5830 5830 5830 5830 5830 5830 5829 5829 5828 5828 5828 5828 5827 5827 5827 5827 5828 5828 5829 5830 5831 5833 5835 5836 5837 5838 5840 5841 5841 5842 5842 5843 5844 5846 5847 5849 5850 5851 5852 5853 5854 5856 5858 5859 5860 5861 5862 5862 5863 5864 5864 5865 5867 5867 5868 5869 5870 5870 5871 5872 5872 5873 5873 5874 5874 5874
5826 5826 5827 5827 5827 5827 5828 5828 5828 5828 5828 5827 5827 5828 5829 5828 5828 5828 5828 5828 5828 5828 5829 5829 5828 5827 5827 5827 5827 5826 5826 5826 5826 5826 5826 5827 5827 5828 5829 5829 5831 5833 5834 5835 5837 5838 5839 5840 5840 5841 5842 5843 5845 5846 5847 5849 5850 5851 5852 5854 5855 5857 5858 5859 5860 5861 5862 5863 5864 5865 5865 5866 5867 5868 5868 5869 5870 5871 5871 5872 5872 5873 5873 5874 5874
5824 5824 5824 5824 5825 5825 5825 5826 5825 5826 5825 5825 5826 5828 5827 5827 5827 5827 5827 5827 5827 5827 5827 5827 5826 5825 5825 5826 5825 5824 5824 5824 5824 5825 5825 5825 5826 5826 5827 5827 5829 5831 5832 5834 5836 5837 5838 5838 5839 5840 5841 5842 5843 5845 5846 5848 5849 5850 5851 5853 5854 5855 5857 5858 5860 5861 5862 5862 5863 5865 5865 5866 5867 5868 5868 5869 5869 5870 5871 5871 5872 5872 5873 5873 5874
5821 5821 5822 5822 5822 5823 5823 5823 5823 5823 5823 5824 5826 5826 5826 5825 5825 5825 5825 5825 5825 5825 5826 5825 5824 5823 5824 5824 5823 5823 5823 5823 5824 5824 5824 5824 5824 5824 5824 5825 5827 5829 5830 5832 5834 5836 5837 5837 5838 5839 5840 5841 5843 5844 5845 5847 5848 5849 5850 5851 5853 5854 5856 5857 5859 5860 5861 5862 5863 5864 5865 5866 5867 5868 5868 5869 5869 5870 5870 5871 5872 5872 5872 5873 5873
5819 5819 5819 5820 5820 5820 5821 5821 5821 5821 5821 5823 5824 5824 5824 5824 5824 5824 5824 5823 5823 5824 5824 5823 5823 5822 5822 5822 5821 5822 5822 5823 5823 5823 5823 5823 5823 5823 5823 5823 5825 5828 5829 5830 5832 5834 5835 5836 5837 5838 5839 5841 5842 5843 5844 5845 5847 5848 5849 5850 5851 5853 5854 5856 5857 5859 5860 5861 5862 5863 5864 5865 5866 5867 5868 5869 5869 5870 5870 5871 5871 5872 5872 5872 5873
5816 5817 5817 5817 5818 5818 5818 5819 5819 5819 5821 5823 5823 5822 5822 5822 5822 5822 5822 5822 5822 5823 5823 5822 5822 5821 5820 5820 5820 5821 5821 5821 5822 5822 5822 5822 5823 5822 5822 5823 5824 5826 5828 5828 5830 5832 5834 5835 5836 5837 5838 5840 5841 5842 5843 5844 5846 5847 5848 5849 5850 5851 5853 5854 5856 5858 5859 5860 5861 5862 5864 5865 5865 5866 5867 5868 5869 5869 5870 5870 5871 5871 5871 5872 5872
5814 5814 5814 5815 5815 5815 5816 5816 5816 5817 5820 5821 5820 5820 5820 5820 5821 5821 5821 5821 5821 5821 5821 5821 5821 5820 5819 5819 5819 5819 5819 5819 5819 5820 5821 5822 5823 5822 5822 5823 5824 5825 5827 5827 5829 5830 5832 5833 5834 5836 5837 5839 5840 5841 5842 5843 5844 5846 5847 5848 5849 5850 5851 5853 5855 5856 5858 5859 5860 5861 5863 5864 5865 5865 5866 5867 5868 5868 5869 5869 5870 5871 5871 5871 5872
5812 5812 5812 5812 5813 5813 5813 5814 5815 5816 5818 5818 5818 5818 5818 5818 5819 5819 5819 5819 5820 5820 5819 5819 5819 5819 5818 5818 5817 5817 5817 5817 5818 5819 5820 5821 5822 5822 5822 5823 5823 5825 5826 5827 5828 5829 5830 5832 5833 5834 5836 5838 5839 5840 5841 5842 5843 5844 5845 5847 5848 5849 5850 5851 5853 5855 5856 5858 5859 5860 5862 5863 5864 5865 5865 5866 5866 5867 5868 5869 5869 5870 5871 5871 5871
5810 5810 5810 5810 5810 5811 5811 5812 5814 5815 5815 5816 5816 5816 5816 5817 5817 5817 5817 5818 5818 5818 5818 5818 5817 5817 5817 5817 5816 5816 5816 5816 5816 5818 5818 5819 5820 5821 5822 5822 5822 5824 5825 5826 5827 5828 5829 5830 5831 5833 5835 5836 5838 5839 5840 5841 5841 5842 5844 5845 5847 5848 5849 5850 5852 5853 5855 5856 5858 5859 5860 5862 5863 5863 5864 5865 5866 5866 5867 5868 5869 5869 5870 5871 5871
5807 5808 5808 5808 5808 5809 5809 5811 5812 5812 5813 5813 5814 5814 5814 5815 5815 5815 5816 5816 5816 5817 5817 5817 5816 5815 5815 5815 5815 5814 5814 5815 5815 5816 5817 5818 5819 5819 5820 5820 5821 5823 5824 5825 5826 5827 5827 5828 5830 5832 5834 5835 5837 5838 5839 5840 5840 5841 5842 5844 5845 5846 5847 5849 5850 5852 5854 5855 5856 5858 5859 5860 5862 5863 5863 5864 5865 5865 5866 5867 5868 5868 5869 5870 5871
5805 5805 5805 5805 5806 5807 5808 5808 5809 5810 5810 5811 5811 5812 5812 5813 5813 5813 5814 5814 5815 5815 5815 5815 5815 5814 5814 5814 5813 5813 5813 5813 5814 5816 5816 5817 5818 5817 5818 5818 5820 5821 5823 5824 5825 5825 5826 5827 5828 5830 5832 5834 5836 5837 5838 5839 5839 5840 5841 5842 5844 5845 5846 5847 5849 5850 5852 5853 5855 5856 5857 5859 5860 5861 5862 5863 5864 5865 5865 5866 5867 5867 5868 5869 5870
5802 5803 5803 5803 5804 5805 5805 5806 5807 5807 5808 5809 5809 5810 5810 5811 5811 5812 5812 5813 5813 5813 5813 5814 5813 5813 5812 5812 5811 5811 5812 5812 5813 5815 5815 5816 5817 5817 5817 5817 5818 5820 5821 5822 5823 5823 5824 5825 5827 5828 5831 5833 5835 5836 5837 5838 5838 5839 5840 5841 5843 5844 5845 5846 5847 5849 5850 5851 5853 5854 5855 5857 5858 5859 5861 5862 5863 5864 5864 5865 5865 5866 5867 5868 5869
5800 5801 5801 5801 5802 5802 5803 5804 5805 5805 5806 5807 5807 5808 5808 5809 5809 5810 5810 5811 5811 5812 5812 5812 5812 5811 5811 5810 5809 5810 5811 5811 5812 5813 5813 5814 5815 5814 5815 5815 5816 5818 5818 5819 5821 5821 5822 5823 5825 5826 5829 5831 5833 5835 5835 5837 5837 5838 5839 5840 5842 5843 5844 5845 5846 5847 5848 5850 5851 5852 5853 5855 5856 5857 5859 5860 5861 5862 5863 5864 5864 5865 5866 5866 5868
5798 5798 5799 5799 5800 5800 5801 5802 5803 5803 5804 5804 5805 5806 5806 5807 5808 5808 5809 5809 5809 5809 5810 5810 5810 5810 5809 5808 5808 5809 5810 5810 5811 5811 5811 5812 5812 5812 5812 5813 5814 5815 5816 5818 5819 5819 5820 5822 5823 5824 5826 5828 5831 5833 5834 5835 5836 5837 5837 5839 5840 5842 5843 5844 5845 5845 5847 5848 5849 5850 5852 5853 5854 5856 5857 5858 5859 5860 5861 5862 5863 5864 5864 5865 5866
5795 5796 5796 5797 5798 5798 5799 5800 5801 5801 5802 5802 5803 5804 5804 5805 5806 5807 5807 5807 5807 5807 5807 5807 5807 5808 5808 5807 5807 5808 5809 5810 5810 5810 5810 5810 5809 5810 5811 5811 5811 5813 5814 5816 5817 5818 5818 5820 5821 5823 5825 5826 5828 5830 5833 5834 5835 5836 5836 5837 5839 5840 5842 5843 5843 5844 5845 5846 5847 5849 5850 5852 5853 5854 5855 5856 5857 5858 5859 5860 5861 5862 5863 5864 5865
5793 5793 5794 5795 5795 5796 5797 5798 5799 5799 5800 5801 5801 5802 5803 5804 5804 5805 5805 5805 5805 5805 5804 5804 5805 5805 5806 5806 5807 5807 5808 5809 5809 5809 5809 5808 5808 5808 5809 5809 5809 5810 5812 5814 5815 5816 5816 5817 5819 5820 5822 5824 5826 5828 5830 5832 5834 5834 5834 5836 5837 5839 5840 5841 5842 5843 5843 5844 5846 5847 5848 5849 5851 5852 5853 5854 5855 5856 5856 5857 5859 5860 5861 5861 5863
5791 5791 5792 5793 5793 5794 5795 5796 5796 5797 5798 5799 5800 5801 5801 5802 5803 5804 5804 5803 5803 5803 5802 5802 5803 5803 5804 5805 5806 5807 5807 5807 5807 5807 5807 5807 5807 5807 5807 5808 5808 5809 5810 5811 5812 5813 5814 5815 5816 5818 5819 5821 5823 5825 5827 5830 5832 5833 5833 5834 5836 5837 5838 5840 5841 5841 5842 5843 5844 5845 5846 5847 5848 5849 5850 5852 5852 5853 5854 5855 5856 5857 5858 5859 5860
5789 5790 5790 5791 5791 5792 5792 5793 5794 5795 5796 5797 5798 5799 5800 5801 5801 5802 5802 5801 5801 5801 5801 5801 5801 5801 5802 5803 5805 5806 5806 5806 5805 5804 5803 5803 5804 5805 5805 5806 5807 5807 5808 5809 5810 5810 5811 5812 5814 5815 5817 5818 5820 5822 5824 5827 5829 5831 5832 5832 5834 5835 5836 5838 5839 5840 5840 5841 5841 5842 5843 5844 5845 5847 5848 5849 5850 5851 5851 5852 5853 5854 5855 5856 5858
5788 5789 5789 5790 5790 5790 5791 5791 5792 5793 5794 5795 5795 5796 5798 5798 5799 5800 5800 5800 5799 5799 5800 5800 5799 5799 5800 5801 5803 5804 5804 5804 5802 5800 5800 5800 5801 5803 5802 5803 5805 5806 5806 5806 5807 5807 5808 5809 5811 5813 5814 5816 5817 5819 5821 5824 5826 5829 5830 5831 5832 5833 5834 5836 5837 5838 5839 5839 5840 5840 5841 5842 5843 5844 5846 5847 5848 5849 5849 5850 5851 5851 5852 5854 5855
5786 5787 5788 5788 5788 5788 5789 5789 5790 5791 5791 5792 5793 5794 5795 5796 5797 5798 5798 5797 5797 5797 5798 5798 5798 5798 5798 5799 5800 5801 5801 5801 5799 5798 5799 5799 5800 5802 5802 5802 5803 5804 5804 5804 5804 5804 5804 5806 5808 5810 5812 5813 5815 5817 5819 5821 5823 5826 5828 5829 5829 5831 5832 5834 5835 5836 5837 5837 5838 5839 5840 5841 5842 5843 5844 5845 5846 5846 5847 5848 5849 5849 5850 5852 5853
5784 5785 5785 5786 5786 5787 5787 5788 5788 5789 5790 5790 5791 5792 5792 5793 5794 5795 5795 5795 5795 5795 5795 5795 5796 5796 5796 5797 5798 5798 5798 5797 5797 5798 5799 5800 5801 5802 5801 5801 5801 5802 5802 5802 5801 5801 5801 5802 5804 5807 5809 5811 5812 5814 5816 5818 5820 5823 5825 5826 5827 5828 5829 5831 5832 5833 5835 5836 5837 5837 5838 5839 5840 5840 5841 5842 5843 5844 5845 5845 5846 5847 5848 5850 5851
5782 5782 5783 5783 5784 5785 5786 5786 5787 5787 5788 5789 5789 5789 5790 5790 5791 5792 5792 5792 5793 5792 5792 5792 5793 5794 5794 5794 5795 5796 5796 5795 5795 5797 5798 5800 5801 5801 5800 5799 5798 5800 5800 5800 5800 5799 5798 5799 5801 5803 5806 5808 5809 5811 5813 5815 5817 5820 5822 5824 5825 5825 5827 5828 5829 5831 5832 5834 5835 5836 5836 5837 5838 5839 5839 5840 5841 5842 5842 5843 5844 5845 5846 5847 5849
5779 5780 5781 5781 5782 5783 5784 5784 5785 5785 5786 5787 5787 5787 5787 5788 5788 5788 5789 5790 5790 5790 5790 5790 5790 5791 5791 5792 5793 5793 5793 5793 5794 5795 5796 5797 5799 5799 5798 5796 5795 5797 5798 5798 5798 5797 5796 5796 5797 5799 5801 5804 5806 5808 5810 5812 5814 5816 5818 5821 5822 5823 5824 5825 5827 5828 5829 5831 5832 5833 5835 5835 5836 5837 5837 5838 5838 5839 5840 5841 5842 5843 5844 5845 5846
5777 5778 5778 5779 5780 5780 5781 5782 5783 5783 5784 5784 5785 5785 5785 5785 5786 5786 5786 5786 5787 5788 5788 5787 5786 5787 5788 5789 5790 5790 5790 5791 5793 5793 5793 5794 5795 5795 5795 5794 5793 5794 5795 5795 5795 5795 5794 5794 5795 5795 5797 5799 5802 5804 5806 5808 5810 5813 5816 5817 5819 5821 5822 5823 5824 5825 5826 5828 5830 5831 5832 5833 5834 5835 5835 5836 5836 5837 5838 5838 5840 5841 5842 5843 5844
5774 5775 5775 5776 5777 5778 5778 5779 5780 5780 5781 5781 5782 5782 5783 5783 5783 5783 5783 5784 5784 5785 5785 5784 5784 5784 5784 5785 5786 5786 5787 5788 5790 5790 5791 5791 5791 5791 5791 5791 5791 5790 5790 5791 5792 5793 5792 5792 5793 5793 5794 5796 5798 5800 5802 5805 5807 5809 5812 5814 5816 5818 5819 5820 5821 5822 5823 5825 5826 5828 5829 5830 5831 5833 5833 5834 5834 5835 5835 5836 5837 5839 5840 5841 5842
5771 5772 5772 5773 5773 5774 5775 5775 5776 5777 5777 5778 5778 5779 5780 5780 5780 5781 5781 5781 5781 5782 5782 5782 5781 5781 5781 5782 5783 5783 5783 5784 5786 5787 5787 5789 5789 5788 5788 5788 5788 5786 5786 5788 5789 5790 5790 5790 5791 5792 5793 5794 5795 5796 5798 5801 5803 5805 5807 5809 5812 5814 5815 5817 5818 5819 5821 5822 5823 5824 5826 5827 5828 5830 5831 5832 5832 5832 5833 5834 5835 5836 5838 5839 5840
5768 5768 5769 5770 5770 5770 5771 5772 5772 5773 5774 5775 5775 5776 5776 5777 5777 5777 5778 5778 5779 5779 5779 5779 5779 5778 5778 5778 5779 5779 5780 5780 5781 5783 5784 5785 5785 5785 5785 5784 5784 5784 5784 5784 5785 5787 5788 5788 5789 5789 5790 5791 5792 5792 5793 5796 5798 5800 5803 5805 5808 5810 5811 5813 5815 5817 5818 5818 5819 5820 5822 5824 5825 5826 5828 5829 5830 5830 5831 5831 5832 5834 5835 5836 5837
5765 5765 5766 5766 5766 5767 5767 5768 5769 5770 5771 5772 5772 5773 5773 5773 5773 5774 5774 5775 5776 5776 5776 5776 5776 5776 5776 5776 5776 5776 5776 5776 5777 5778 5779 5780 5781 5781 5781 5781 5782 5781 5781 5782 5782 5783 5785 5786 5786 5787 5787 5788 5789 5789 5790 5792 5794 5797 5799 5801 5803 5805 5807 5809 5811 5813 5814 5815 5816 5817 5819 5820 5822 5823 5824 5826 5827 5828 5828 5829 5829 5831 5832 5833 5834
5762 5762 5763 5763 5763 5763 5764 5765 5766 5767 5767 5768 5769 5769 5769 5770 5770 5770 5771 5772 5772 5773 5773 5773 5773 5773 5773 5773 5773 5772 5773 5773 5773 5774 5775 5776 5776 5777 5778 5779 5779 5778 5778 5779 5779 5780 5782 5783 5783 5784 5784 5785 5785 5786 5787 5789 5791 5793 5795 5797 5799 5801 5803 5805 5806 5808 5810 5812 5813 5814 5815 5816 5818 5819 5820 5822 5823 5824 5825 5826 5826 5828 5829 5830 5831
5759 5759 5759 5759 5760 5760 5761 5762 5762 5763 5764 5764 5765 5766 5766 5766 5767 5767 5768 5768 5769 5769 5770 5770 5770 5770 5770 5770 5770 5770 5770 5770 5770 5771 5771 5772 5772 5773 5775 5776 5776 5775 5775 5776 5777 5777 5778 5779 5780 5780 5781 5782 5782 5783 5785 5786 5788 5790 5791 5793 5795 5796 5798 5800 5802 5804 5805 5806 5808 5810 5811 5812 5813 5815 5816 5818 5819 5820 5821 5822 5823 5824 5825 5826 5828
5755 5754 5755 5756 5756 5757 5758 5758 5759 5760 5760 5760 5761 5762 5762 5763 5764 5764 5765 5765 5765 5766 5766 5766 5767 5767 5767 5767 5767 5767 5767 5768 5768 5768 5768 5768 5769 5770 5771 5772 5773 5772 5772 5774 5774 5774 5775 5777 5778 5778 5779 5780 5780 5780 5782 5783 5785 5787 5788 5789 5791 5792 5793 5795 5796 5798 5799 5800 5803 5805 5807 5808 5809 5811 5812 5814 5815 5816 5818 5819 5820 5821 5822 5823 5824
5752 5751 5752 5752 5753 5753 5754 5755 5755 5756 5757 5757 5757 5758 5758 5759 5760 5761 5761 5762 5762 5762 5762 5763 5763 5763 5764 5765 5765 5765 5765 5765 5766 5766 5766 5766 5766 5766 5767 5769 5769 5769 5769 5770 5771 5772 5773 5775 5775 5775 5775 5776 5777 5778 5779 5780 5781 5782 5784 5785 5786 5788 5789 5789 5790 5792 5793 5795 5798 5800 5802 5803 5805 5807 5808 5809 5811 5812 5813 5815 5816 5817 5818 5819 5820
5749 5749 5749 5749 5750 5750 5751 5751 5752 5753 5753 5753 5754 5754 5755 5755 5757 5758 5758 5758 5759 5759 5759 5759 5759 5760 5760 5761 5762 5762 5762 5763 5763 5764 5764 5764 5763 5764 5764 5765 5766 5766 5766 5767 5768 5769 5770 5771 5771 5771 5772 5773 5774 5775 5776 5777 5777 5778 5780 5781 5783 5785 5785 5785 5785 5788 5789 5790 5793 5795 5797 5799 5801 5803 5804 5806 5807 5808 5810 5811 5813 5814 5815 5816 5817
5746 5746 5746 5746 5746 5747 5747 5748 5749 5750 5750 5751 5751 5751 5751 5752 5753 5754 5755 5755 5755 5756 5756 5756 5756 5756 5757 5758 5758 5759 5759 5760 5760 5761 5761 5761 5761 5761 5761 5762 5763 5763 5764 5764 5765 5766 5767 5768 5768 5769 5770 5771 5772 5773 5774 5774 5775 5776 5777 5778 5779 5781 5782 5782 5782 5784 5784 5786 5788 5790 5792 5795 5797 5799 5801 5802 5803 5805 5807 5807 5809 5810 5811 5813 5814
5743 5743 5743 5743 5743 5744 5744 5745 5746 5747 5748 5748 5748 5748 5748 5748 5750 5751 5751 5751 5752 5752 5753 5753 5753 5753 5754 5754 5755 5756 5756 5756 5757 5758 5759 5759 5759 5759 5759 5759 5760 5761 5761 5761 5762 5763 5765 5765 5766 5766 5767 5769 5769 5770 5771 5772 5773 5774 5775 5775 5776 5777 5779 5780 5780 5780 5781 5783 5784 5786 5789 5792 5794 5796 5798 5799 5800 5803 5803 5803 5805 5806 5807 5809 5810
5740 5740 5740 5740 5741 5742 5742 5743 5744 5745 5746 5746 5745 5745 5745 5745 5747 5748 5748 5748 5749 5749 5749 5750 5750 5750 5751 5751 5752 5753 5753 5754 5754 5755 5756 5757 5757 5757 5757 5757 5757 5758 5759 5759 5760 5761 5762 5763 5764 5765 5765 5766 5767 5767 5768 5770 5771 5771 5772 5773 5773 5774 5776 5777 5778 5778 5779 5781 5782 5784 5786 5788 5791 5793 5794 5796 5797 5799 5800 5800 5801 5802 5804 5805 5805
5737 5737 5737 5738 5738 5739 5740 5741 5741 5743 5744 5744 5743 5743 5743 5743 5744 5745 5745 5745 5745 5746 5746 5747 5747 5748 5748 5748 5749 5750 5751 5751 5752 5753 5753 5754 5754 5754 5754 5754 5755 5755 5756 5757 5757 5758 5759 5761 5762 5762 5763 5763 5764 5765 5765 5766 5768 5769 5770 5771 5771 5772 5772 5773 5775 5776 5777 5779 5780 5781 5782 5785 5787 5789 5790 5792 5794 5796 5797 5797 5797 5799 5800 5800 5801
5735 5735 5735 5735 5736 5737 5738 5738 5739 5740 5741 5741 5741 5741 5741 5741 5741 5742 5742 5742 5742 5743 5743 5744 5744 5744 5745 5745 5746 5747 5748 5749 5749 5750 5751 5751 5751 5752 5752 5752 5752 5752 5753 5754 5755 5756 5757 5758 5759 5760 5760 5761 5761 5762 5762 5763 5764 5765 5766 5768 5769 5769 5770 5771 5772 5773 5774 5776 5778 5778 5779 5781 5783 5784 5785 5787 5789 5791 5792 5793 5793 5794 5795 5795 5796
5733 5733 5733 5733 5734 5735 5735 5736 5737 5738 5738 5739 5739 5739 5739 5739 5739 5739 5739 5739 5740 5740 5740 5741 5741 5741 5741 5742 5743 5744 5745 5746 5747 5747 5748 5748 5749 5749 5749 5749 5750 5750 5751 5751 5752 5753 5754 5755 5756 5757 5757 5758 5758 5759 5759 5760 5761 5762 5763 5763 5765 5766 5767 5768 5769 5770 5771 5773 5775 5776 5777 5777 5779 5780 5781 5782 5784 5786 5787 5788 5789 5789 5789 5790 5791